This is the latest recevied weather packets stored in our database for station/object WX6HNX-5. If no packets are shown the sender has not sent any weather packets the latest 10 day(s).
| Time | Temp. | Humidity | Pressure | Rain* | Wind** | Luminosity | Snow |
|---|---|---|---|---|---|---|---|
| 1777699340 | 19.44° C | 51% | 1010.3 hPa | 0 mm | - | - | - |
| 1777698442 | 21.11° C | 47% | 1010.3 hPa | 0 mm | - | - | - |
| 1777698140 | 21.11° C | 46% | 1010.2 hPa | 0 mm | - | - | - |
| 1777697840 | 21.67° C | 47% | 1010.2 hPa | 0 mm | - | - | - |
| 1777697540 | 22.22° C | 46% | 1010.1 hPa | 0 mm | - | - | - |
| 1777697240 | 22.78° C | 45% | 1010 hPa | 0 mm | - | - | - |
| 1777696940 | 22.78° C | 45% | 1010 hPa | 0 mm | - | - | - |
| 1777696640 | 23.33° C | 44% | 1009.9 hPa | 0 mm | - | - | - |
| 1777696340 | 23.33° C | 46% | 1009.8 hPa | 0 mm | - | - | - |
| 1777696040 | 23.89° C | 47% | 1009.8 hPa | 0 mm | - | - | - |
| 1777695140 | 23.89° C | 47% | 1009.6 hPa | 0 mm | - | - | - |
| 1777694840 | 23.89° C | 47% | 1009.5 hPa | 0 mm | - | - | - |
| 1777694540 | 23.89° C | 47% | 1009.5 hPa | 0 mm | - | - | - |
| 1777693940 | 24.44° C | 47% | 1009.3 hPa | 0 mm | - | - | - |
| 1777693640 | 25° C | 46% | 1009.2 hPa | 0 mm | - | - | - |
| 1777692741 | 25.56° C | 43% | 1008.9 hPa | 0 mm | - | - | - |
| 1777691575 | 25.56° C | 43% | 1008.6 hPa | 0 mm | - | - | - |
| 1777691275 | 26.11° C | 43% | 1008.6 hPa | 0 mm | - | - | - |
| 1777690864 | 26.11° C | 43% | 1008.5 hPa | 0 mm | - | - | - |
| 1777690564 | 26.67° C | 42% | 1008.3 hPa | 0 mm | - | - | - |
| 1777690264 | 26.67° C | 42% | 1008.3 hPa | 0 mm | - | - | - |
| 1777689964 | 27.22° C | 41% | 1008.2 hPa | 0 mm | - | - | - |
| 1777689664 | 27.22° C | 40% | 1008.3 hPa | 0 mm | - | - | - |
| 1777689364 | 27.22° C | 39% | 1008.2 hPa | 0 mm | - | - | - |
| 1777689064 | - | - | 1008.3 hPa | 0 mm | - | - | - |
* Rain latest hour (hover to see other rain measurements)
** Current wind speed in m/s (hover to see current wind gust speed)